Location: Christchurch
(43.5000°S, 172.6000°E)
Time: 01:05:08
(UTC+12:00)

ISS - Visible Passes

Search period start: 04 August 2020 00:00
Search period end: 14 August 2020 00:00
Orbit: 419 x 420 km, 51.6° (Epoch: 04 August)

Date Brightness Start Highest point End Pass type
(mag) Time Alt. Az. Time Alt. Az. Time Alt. Az.
04 Aug -1.7 05:37:04 21° SSE 05:37:04 21° SSE 05:39:24 10° ESE visible
05 Aug -0.4 04:51:22 11° SE 04:51:22 11° SE 04:51:35 10° SE visible
05 Aug -2.4 06:24:20 17° SW 06:26:26 33° SSE 06:29:36 10° E visible
06 Aug -2.1 05:38:39 27° SSE 05:38:43 27° SSE 05:41:43 10° ESE visible
07 Aug -0.7 04:53:00 14° SE 04:53:00 14° SE 04:53:48 10° ESE visible
07 Aug -3.5 06:25:57 19° SW 06:28:14 66° SSE 06:31:39 10° ENE visible
08 Aug -3.0 05:40:21 44° S 05:40:35 45° SSE 05:43:54 10° E visible
09 Aug -0.9 04:54:47 19° ESE 04:54:47 19° ESE 04:56:02 10° E visible
09 Aug -3.3 06:27:45 20° WSW 06:29:48 48° NW 06:33:05 10° NE visible
10 Aug -3.8 05:42:16 79° NNW 05:42:16 79° NNW 05:45:38 10° NE visible
11 Aug -1.1 04:56:52 19° ENE 04:56:52 19° ENE 04:58:00 10° ENE visible
11 Aug -1.9 06:29:50 15° WNW 06:31:05 18° NW 06:33:29 10° N visible
12 Aug -2.2 05:44:32 25° NNW 05:44:32 25° NNW 05:46:36 10° NNE visible
13 Aug -0.6 04:59:19 10° NE 04:59:19 10° NE 04:59:22 10° NE visible
